TimeCDT,TemperatureF,Dew PointF,Humidity,Sea Level PressureIn,VisibilityMPH,Wind Direction,Wind SpeedMPH,Gust SpeedMPH,PrecipitationIn,Events,Conditions,WindDirDegrees,DateUTC
12:53 AM,45.0,44.1,97,30.04,1.5,Calm,Calm,-,N/A,,Partly Cloudy,0,2013-09-26 05:53:00
1:07 AM,46.0,45.0,96,30.03,3.0,Calm,Calm,-,N/A,,Mostly Cloudy,0,2013-09-26 06:07:00
1:13 AM,46.0,45.0,96,30.03,1.5,Calm,Calm,-,N/A,,Mostly Cloudy,0,2013-09-26 06:13:00
1:18 AM,45.0,45.0,100,30.03,0.2,Calm,Calm,-,N/A,Fog,Fog,0,2013-09-26 06:18:00
1:53 AM,44.1,44.1,100,30.05,0.2,Calm,Calm,-,N/A,Fog,Fog,0,2013-09-26 06:53:00
2:24 AM,44.1,44.1,100,30.05,0.5,Calm,Calm,-,N/A,Fog,Fog,0,2013-09-26 07:24:00
2:31 AM,44.1,43.0,96,30.05,0.2,Calm,Calm,-,N/A,Fog,Fog,0,2013-09-26 07:31:00
2:48 AM,44.6,42.8,93,30.05,0.2,NW,3.5,-,N/A,Fog,Fog,310,2013-09-26 07:48:00
2:53 AM,44.1,44.1,100,30.06,0.2,WNW,3.5,-,N/A,Fog,Fog,300,2013-09-26 07:53:00
3:40 AM,44.1,44.1,100,30.05,0.5,Calm,Calm,-,N/A,Fog,Fog,0,2013-09-26 08:40:00
3:49 AM,44.6,44.6,100,30.05,0.2,WNW,3.5,-,N/A,Fog,Fog,300,2013-09-26 08:49:00
3:50 AM,44.1,44.1,100,30.06,0.2,WNW,3.5,-,N/A,Fog,Fog,300,2013-09-26 08:50:00
4:53 AM,46.0,46.0,100,30.07,0.2,Calm,Calm,-,N/A,Fog,Fog,0,2013-09-26 09:53:00
5:53 AM,46.0,46.0,100,30.08,0.2,NW,3.5,-,N/A,Fog,Fog,310,2013-09-26 10:53:00
6:53 AM,46.9,46.9,100,30.10,0.2,North,3.5,-,N/A,Fog,Fog,350,2013-09-26 11:53:00
7:53 AM,50.0,50.0,100,30.11,0.2,Calm,Calm,-,N/A,Fog,Fog,0,2013-09-26 12:53:00
8:53 AM,52.0,52.0,100,30.11,0.2,Calm,Calm,-,N/A,Fog,Fog,0,2013-09-26 13:53:00
9:53 AM,57.0,55.9,96,30.11,0.8,Calm,Calm,-,N/A,,Overcast,0,2013-09-26 14:53:00
10:00 AM,57.9,57.0,97,30.10,1.5,Calm,Calm,-,N/A,,Mostly Cloudy,0,2013-09-26 15:00:00
10:09 AM,57.9,57.0,97,30.10,2.5,Calm,Calm,-,N/A,,Scattered Clouds,0,2013-09-26 15:09:00
10:17 AM,59.0,57.9,96,30.10,5.0,Calm,Calm,-,N/A,,Haze,0,2013-09-26 15:17:00
10:53 AM,64.9,57.0,75,30.10,5.0,Variable,5.8,-,N/A,,Haze,0,2013-09-26 15:53:00
11:53 AM,70.0,53.1,55,30.10,10.0,SSE,9.2,-,N/A,,Haze,160,2013-09-26 16:53:00
12:53 PM,72.0,53.1,51,30.09,10.0,SE,4.6,-,N/A,,Haze,140,2013-09-26 17:53:00
1:53 PM,73.0,52.0,48,30.08,10.0,Variable,6.9,-,N/A,,Haze,0,2013-09-26 18:53:00
2:53 PM,75.0,53.1,46,30.08,10.0,SSE,8.1,-,N/A,,Clear,150,2013-09-26 19:53:00
3:53 PM,73.9,53.1,48,30.07,10.0,SE,4.6,-,N/A,,Clear,140,2013-09-26 20:53:00
4:53 PM,73.0,55.0,53,30.07,10.0,SSE,10.4,-,N/A,,Clear,150,2013-09-26 21:53:00
5:53 PM,68.0,55.0,63,30.08,10.0,ESE,10.4,-,N/A,,Clear,120,2013-09-26 22:53:00
6:53 PM,63.0,55.9,78,30.09,10.0,SE,11.5,-,N/A,,Clear,140,2013-09-26 23:53:00
7:53 PM,59.0,55.9,90,30.09,7.0,ESE,6.9,-,N/A,,Clear,120,2013-09-27 00:53:00
8:53 PM,55.0,53.1,93,30.10,4.0,SSE,4.6,-,N/A,,Clear,150,2013-09-27 01:53:00
9:53 PM,54.0,53.1,97,30.12,7.0,Calm,Calm,-,N/A,,Clear,0,2013-09-27 02:53:00
10:51 PM,50.0,50.0,100,30.11,5.0,Calm,Calm,-,N/A,Fog,Shallow Fog,0,2013-09-27 03:51:00
10:53 PM,50.0,48.9,96,30.12,5.0,Calm,Calm,-,N/A,Fog,Shallow Fog,0,2013-09-27 03:53:00
11:36 PM,48.0,48.0,100,30.11,0.2,Calm,Calm,-,N/A,Fog,Fog,0,2013-09-27 04:36:00
11:53 PM,46.9,46.9,100,30.12,0.2,Calm,Calm,-,N/A,Fog,Fog,0,2013-09-27 04:53:00
11:58 PM,46.9,46.9,100,30.12,0.2,Calm,Calm,-,N/A,Fog,Fog,0,2013-09-27 04:58:00